[[{"header":{"parameterUnit":"m.s-1","parameterCategory":1,"la1":30.2992,"la2":30.254,"lo1":-89.0895,"lo2":-89.0443,"dy":0.0025,"dx":0.0025,"nx":19,"ny":19,"refTime":"2026-05-11T21:00:00:Z","depth":0,"parameterNumber":2,"parameterNumberName":"U-component_of_WINDS"},"data":[0,0,0,0.9594,0.9593,0.9542,0.9542,0.9468,0.9468,0,0,0,0,0,0,0,0,0,0,0,0.9608,0.9608,0.9594,0.9593,0.9542,0.9542,0.9468,0.9468,0,0,0,0,0,0,0,0,0,0,0,0.9609,0.9608,0.9608,0.9593,0.9542,0.9542,0.9469,0.9509,0,0,0,0,0,0,0,0,0,0,0.956,0.9573,0.9608,0.9608,0.9592,0.9542,0.9542,0.9511,0.9506,0.9489,0,0.9478,0,0.9472,0.9463,0.9462,0,0,0,0.9592,0.9577,0.9564,0.9607,0.9592,0.9542,0.9565,0.9508,0.9503,0.9483,0.9476,0.9474,0.947,0.9462,0.9462,0.9373,0.9373,0,0,0.9595,0.9598,0.9568,0.9561,0.9573,0.9566,0.9563,0.9505,0.9497,0.9476,0.9472,0.9469,0.9462,0.9461,0.9374,0.9373,0,0,0,0.9604,0.96,0.9589,0.9564,0.9556,0.9565,0.9561,0.9499,0.9496,0.9471,0.9468,0.9461,0.946,0.9374,0.9373,0.9357,0,0,0,0.9605,0.9605,0.959,0.9591,0.9557,0.9528,0.9556,0.95,0.9493,0.9469,0.9461,0.9459,0.9375,0.9374,0.9359,0.9348,0,0,0,0.9612,0.9606,0.9598,0.9591,0.957,0.9529,0.9522,0.9498,0.9491,0.9462,0.9459,0.9375,0.9374,0.936,0.935,0.9325,0,0,0,0.9619,0.9584,0.9598,0.9557,0.957,0.9521,0.9522,0.9484,0.9457,0.9461,0.9374,0.9374,0.936,0.9352,0.9326,0.9303,0.9295,0,0,0.9576,0.9579,0.9554,0.9566,0.9515,0.9528,0.9473,0.9444,0.9437,0.9394,0.9392,0.9358,0.935,0.9325,0.9248,0.9241,0,0,0,0.9541,0.9524,0.951,0.9487,0.9466,0.9446,0.9427,0.9416,0.938,0.9417,0.9343,0.9338,0.9323,0.9312,0.9306,0.9292,0.9369,0.9369,0.9369,0.9482,0.9478,0.9437,0.9427,0.9403,0.9384,0.9363,0.9345,0.9345,0.9328,0.9314,0.9268,0.9255,0.9251,0.9236,0.9303,0.9303,0.9303,0.9303,0.9417,0.9391,0.9395,0.9356,0.935,0.9316,0.9295,0.9297,0.9262,0.9278,0.9265,0.9281,0.9244,0.923,0.9302,0.9302,0.9302,0.9302,0.9302,0.9377,0.9363,0.9353,0.9319,0.9292,0.9281,0.9248,0.9244,0.9238,0.9225,0.9209,0.9209,0.9207,0.9219,0.9218,0.9218,0.9218,0.9218,0.9218,0.9338,0.9327,0.9302,0.9278,0.9262,0.924,0.922,0.9202,0.9181,0.918,0.918,0.918,0.9242,0.9257,0.9215,0.9216,0.9216,0.9216,0.9216,0.927,0.9285,0.9246,0.923,0.92,0.9173,0.9169,0.9134,0.9118,0.9101,0.9105,0.9153,0.9154,0.9158,0.917,0.9109,0.9109,0.9109,0.9109,0.9234,0.9236,0.9194,0.9169,0.9144,0.9136,0.9088,0.9071,0.9055,0.9044,0.9053,0.9069,0.9074,0.9072,0.9078,0.9089,0.9008,0.9008,0.9008,0.9191,0.919,0.9151,0.914,0.9117,0.9095,0.9049,0.9016,0.9001,0.9004,0.9035,0.904,0.9065,0.9074,0.9075,0.9086,0.9105,0,0]},{"header":{"parameterUnit":"m.s-1","parameterCategory":1,"la1":30.2992,"la2":30.254,"lo1":-89.0895,"lo2":-89.0443,"dy":0.0025,"dx":0.0025,"nx":19,"ny":19,"refTime":"2026-05-11T21:00:00:Z","depth":0,"parameterNumber":3,"parameterNumberName":"V-component_of_WINDS"},"data":[0,0,0,4.3414,4.3417,4.3562,4.3562,4.3728,4.373,0,0,0,0,0,0,0,0,0,0,0,4.3363,4.3364,4.3414,4.3418,4.3561,4.3562,4.3728,4.373,0,0,0,0,0,0,0,0,0,0,0,4.3362,4.3363,4.3364,4.3418,4.3561,4.3562,4.3728,4.3625,0,0,0,0,0,0,0,0,0,0,4.3488,4.3432,4.3363,4.3365,4.3419,4.3561,4.3562,4.362,4.3631,4.3656,0,4.3677,0,4.3706,4.374,4.374,0,0,0,4.3423,4.3423,4.347,4.3365,4.342,4.3561,4.3498,4.3627,4.3639,4.367,4.368,4.3686,4.3709,4.3741,4.3741,4.3868,4.3869,0,0,4.3415,4.3383,4.3461,4.3478,4.3457,4.3494,4.3503,4.3634,4.3642,4.368,4.3691,4.3712,4.3742,4.3743,4.3868,4.3868,0,0,0,4.3389,4.3377,4.3422,4.347,4.3498,4.3498,4.3508,4.3636,4.3653,4.3692,4.3714,4.3743,4.3744,4.3868,4.3868,4.3853,0,0,0,4.3384,4.3362,4.3418,4.34,4.3495,4.3569,4.3506,4.3644,4.366,4.3713,4.3743,4.3746,4.3867,4.3868,4.3853,4.3851,0,0,0,4.3356,4.3359,4.3377,4.3398,4.3459,4.3568,4.3593,4.3648,4.3672,4.374,4.3746,4.3867,4.3868,4.3853,4.3851,4.3875,0,0,0,4.3317,4.336,4.3376,4.3433,4.3458,4.3558,4.3592,4.3668,4.3725,4.3743,4.3868,4.3868,4.3853,4.385,4.3874,4.3889,4.3893,0,0,4.3354,4.3364,4.34,4.3418,4.3508,4.3539,4.3626,4.3707,4.3741,4.3823,4.3827,4.3853,4.3851,4.3875,4.3924,4.3926,0,0,0,4.34,4.3426,4.3457,4.351,4.3574,4.3629,4.3701,4.3731,4.3802,4.3778,4.387,4.3869,4.3884,4.3893,4.3895,4.391,4.3871,4.3871,4.3871,4.3405,4.345,4.3512,4.3573,4.3624,4.3698,4.3743,4.3796,4.3824,4.3844,4.3869,4.3893,4.3902,4.3904,4.3919,4.3881,4.3881,4.388,4.388,4.3463,4.3506,4.3544,4.3617,4.3663,4.3724,4.3797,4.3814,4.3877,4.3879,4.3894,4.3891,4.3906,4.3921,4.388,4.388,4.388,4.388,4.388,4.3471,4.3499,4.3536,4.3619,4.3676,4.3736,4.3795,4.3834,4.3871,4.3886,4.3916,4.3916,4.3921,4.3898,4.3898,4.3898,4.3898,4.3898,4.3898,4.3464,4.3507,4.3553,4.3626,4.3665,4.3722,4.3797,4.3836,4.3889,4.3912,4.3913,4.3938,4.3899,4.3888,4.39,4.39,4.3899,4.3899,4.3899,4.3506,4.3503,4.3574,4.3614,4.3702,4.3756,4.3806,4.3882,4.392,4.3948,4.397,4.3936,4.3948,4.3946,4.3937,4.3961,4.3961,4.3961,4.3961,4.3512,4.3523,4.3605,4.3665,4.3729,4.3781,4.3858,4.3916,4.3975,4.4001,4.4004,4.3995,4.3992,4.4006,4.4004,4.3996,4.4034,4.4034,4.4034,4.354,4.3558,4.3618,4.3678,4.3749,4.3809,4.3883,4.395,4.4016,4.4038,4.4022,4.4019,4.4006,4.4,4.4021,4.4016,4.4003,0,0]}]]